TimePST,TemperatureF,Dew PointF,Humidity,Sea Level PressureIn,VisibilityMPH,Wind Direction,Wind SpeedMPH,Gust SpeedMPH,PrecipitationIn,Events,Conditions,WindDirDegrees,DateUTC
12:56 AM,28.0,1.9,33,30.29,10.0,WNW,8.1,-,N/A,,Clear,290,2013-02-25 08:56:00
1:56 AM,32.0,3.0,29,30.28,10.0,West,4.6,-,N/A,,Clear,260,2013-02-25 09:56:00
2:56 AM,27.0,5.0,39,30.27,10.0,Calm,Calm,-,N/A,,Clear,0,2013-02-25 10:56:00
3:56 AM,24.1,1.9,38,30.27,10.0,NE,4.6,-,N/A,,Clear,50,2013-02-25 11:56:00
4:56 AM,26.1,3.9,39,30.28,10.0,NE,4.6,-,N/A,,Clear,40,2013-02-25 12:56:00
5:56 AM,18.0,1.0,48,30.30,10.0,NNW,3.5,-,N/A,,Clear,330,2013-02-25 13:56:00
6:56 AM,21.0,3.9,48,30.30,10.0,NNW,4.6,-,N/A,,Clear,330,2013-02-25 14:56:00
7:56 AM,32.0,7.0,35,30.30,10.0,Calm,Calm,-,N/A,,Clear,0,2013-02-25 15:56:00
8:56 AM,42.1,7.0,24,30.30,10.0,Calm,Calm,-,N/A,,Clear,0,2013-02-25 16:56:00
9:56 AM,46.9,5.0,18,30.27,-9999.0,Calm,Calm,-,N/A,,Clear,0,2013-02-25 17:56:00
10:56 AM,53.1,5.0,14,30.25,-9999.0,SSE,3.5,-,N/A,,Clear,150,2013-02-25 18:56:00
11:56 AM,57.0,3.0,11,30.20,-9999.0,Variable,5.8,-,N/A,,Clear,0,2013-02-25 19:56:00
12:56 PM,60.1,5.0,11,30.17,-9999.0,Variable,3.5,-,N/A,,Clear,0,2013-02-25 20:56:00
1:56 PM,62.1,6.1,11,30.12,-9999.0,SW,3.5,-,N/A,,Clear,220,2013-02-25 21:56:00
2:56 PM,68.0,14.0,12,30.09,-9999.0,West,23.0,26.5,N/A,,Clear,280,2013-02-25 22:56:00
3:56 PM,63.0,17.1,17,30.10,-9999.0,West,23.0,32.2,N/A,,Clear,260,2013-02-25 23:56:00
4:56 PM,61.0,18.0,19,30.07,-9999.0,West,24.2,27.6,N/A,,Clear,270,2013-02-26 00:56:00
5:56 PM,55.0,21.0,27,30.09,-9999.0,West,26.5,34.5,N/A,,Clear,280,2013-02-26 01:56:00
6:56 PM,52.0,21.0,30,30.13,-9999.0,West,20.7,-,N/A,,Clear,260,2013-02-26 02:56:00
7:56 PM,50.0,23.0,35,30.12,-9999.0,West,15.0,-,N/A,,Clear,260,2013-02-26 03:56:00
8:56 PM,50.0,23.0,35,30.11,-9999.0,West,20.7,-,N/A,,Clear,270,2013-02-26 04:56:00
9:56 PM,51.1,21.0,31,30.08,-9999.0,West,28.8,35.7,N/A,,Clear,270,2013-02-26 05:56:00
10:56 PM,51.1,21.0,31,30.09,-9999.0,West,10.4,-,N/A,,Clear,260,2013-02-26 06:56:00
11:56 PM,48.0,21.0,34,30.07,-9999.0,WNW,18.4,27.6,N/A,,Clear,290,2013-02-26 07:56:00